Weather History for LIRA - October, 2012

Change the Weather History Date:

Saturday, October 6, 2012

  Actual Average Record
Temperature  
Mean Temperature 66 °F -  
Max Temperature 78 °F 69 °F 80 °F (2001)
Min Temperature 55 °F 50 °F 33 °F (1999)
Cooling Degree Days 2    
Growing Degree Days 16 (Base 50)    
Moisture  
Dew Point 58 °F    
Average Humidity 78    
Maximum Humidity 94    
Minimum Humidity 44    
Precipitation  
Precipitation 0.00 in 0.13 in - ()
Sea Level Pressure  
Sea Level Pressure 30.13 in    
Wind  
Wind Speed 3 mph ()    
Max Wind Speed 8 mph    
Max Gust Speed -    
Visibility 6.2 miles    
Events      
Averages and records for this station are not official NWS values.
T = Trace of Precipitation, MM = Missing Value Source: Averaged Metar Reports

Daily Weather History Graph

Daily Weather History Graph

Search for Another Location

Airport or City:

Trip Planner

Search our weather history database for the weather conditions in past years. The results will help you decide how hot, cold, wet, or windy it might be!

Date:

Astronomy

Oct. 06, 2012 Rise Set
Actual Time 7:12 AM CEST 6:42 PM CEST
Civil Twilight 6:44 AM CEST 7:10 PM CEST
Nautical Twilight 6:12 AM CEST 7:42 PM CEST
Astronomical Twilight 5:39 AM CEST 8:14 PM CEST
Moon 10:38 PM CEST (10/6) 12:57 PM CEST (10/6)
Length of Visible Light 12h 25m
Length of Day
11h 30m
Waning Gibbous, 68% of the Moon is Illuminated
Oct 6
Waning Gibbous
Oct 8
Last Quarter
Oct 15
New
Oct 22
First Quarter
Oct 29
Full

Hourly Weather History & Observations

Time (CEST) Temp. Dew Point Humidity Pressure Visibility Wind Dir Wind Speed Gust Speed Precip Events Conditions
12:15 AM 60.8 °F 57.2 °F 88% 30.15 in - SSE 2.3 mph - N/A   Clear
12:45 AM 60.8 °F 55.4 °F 82% 30.15 in - SSE 2.3 mph - N/A   Clear
1:15 AM 59.0 °F 55.4 °F 88% 30.15 in - SSE 2.3 mph - N/A   Clear
1:45 AM 59.0 °F 55.4 °F 88% 30.15 in - ESE 2.3 mph - N/A   Clear
2:15 AM 59.0 °F 51.8 °F 77% 30.15 in - East 2.3 mph - N/A   Clear
2:45 AM 59.0 °F 51.8 °F 77% 30.15 in - NE 1.2 mph - N/A   Clear
3:15 AM 57.2 °F 51.8 °F 82% 30.15 in - NNE 2.3 mph - N/A   Clear
3:45 AM 57.2 °F 51.8 °F 82% 30.15 in - NNE 2.3 mph - N/A   Clear
4:15 AM 57.2 °F 51.8 °F 82% 30.12 in - NNE 3.5 mph - N/A   Clear
4:45 AM 57.2 °F 53.6 °F 88% 30.12 in - NNE 3.5 mph - N/A   Clear
5:15 AM 57.2 °F 53.6 °F 88% 30.12 in - NNE 2.3 mph - N/A   Clear
5:45 AM 57.2 °F 53.6 °F 88% 30.12 in - North 1.2 mph - N/A   Clear
6:15 AM 55.4 °F 53.6 °F 94% 30.12 in - ENE 2.3 mph - N/A   Clear
6:45 AM 55.4 °F 53.6 °F 94% 30.12 in - ENE 3.5 mph - N/A   Clear
7:15 AM 55.4 °F 53.6 °F 94% 30.12 in - NE 2.3 mph - N/A   Clear
7:45 AM 55.4 °F 53.6 °F 94% 30.12 in - NE 3.5 mph - N/A   Clear
8:15 AM 57.2 °F 53.6 °F 88% 30.12 in 6.2 mi NNE 1.2 mph - N/A   Partly Cloudy
8:45 AM 59.0 °F 55.4 °F 88% 30.15 in 6.2 mi North 1.2 mph - N/A   Partly Cloudy
9:15 AM 60.8 °F 57.2 °F 88% 30.15 in 6.2 mi North 2.3 mph - N/A   Partly Cloudy
9:45 AM 62.6 °F 59.0 °F 88% 30.15 in 6.2 mi NNE 1.2 mph - N/A   Partly Cloudy
10:15 AM 66.2 °F 59.0 °F 78% 30.15 in 6.2 mi NNW 1.2 mph - N/A   Partly Cloudy
10:45 AM 68.0 °F 60.8 °F 78% 30.15 in - WNW 2.3 mph - N/A   Clear
11:15 AM 69.8 °F 60.8 °F 73% 30.15 in - WNW 3.5 mph - N/A   Clear
11:45 AM 71.6 °F 62.6 °F 73% 30.15 in - SW 2.3 mph - N/A   Clear
12:15 PM 73.4 °F 64.4 °F 73% 30.15 in - SSW 2.3 mph - N/A   Clear
12:45 PM 75.2 °F 62.6 °F 65% 30.15 in - South 3.5 mph - N/A   Clear
1:15 PM 77.0 °F 60.8 °F 57% 30.15 in 6.2 mi South 4.6 mph - N/A   Partly Cloudy
1:45 PM 77.0 °F 59.0 °F 54% 30.15 in 6.2 mi West 4.6 mph - N/A   Partly Cloudy
2:15 PM 77.0 °F 57.2 °F 50% 30.12 in 6.2 mi NW 2.3 mph - N/A   Partly Cloudy
2:45 PM 78.8 °F 55.4 °F 44% 30.12 in 6.2 mi SW 2.3 mph - N/A   Partly Cloudy
3:15 PM 78.8 °F 57.2 °F 47% 30.12 in 6.2 mi West 5.8 mph - N/A   Partly Cloudy
3:45 PM 78.8 °F 60.8 °F 54% 30.12 in - SSW 6.9 mph - N/A   Clear
4:15 PM 77.0 °F 60.8 °F 57% 30.09 in - SSW 5.8 mph - N/A   Clear
4:45 PM 77.0 °F 60.8 °F 57% 30.09 in 6.2 mi SW 5.8 mph - N/A   Partly Cloudy
5:15 PM 75.2 °F 60.8 °F 61% 30.09 in 6.2 mi SW 8.1 mph - N/A   Partly Cloudy
5:45 PM 71.6 °F 59.0 °F 64% 30.12 in - SW 6.9 mph - N/A   Clear
6:15 PM 71.6 °F 60.8 °F 69% 30.12 in - SW 6.9 mph - N/A   Clear
6:45 PM 68.0 °F 60.8 °F 78% 30.12 in - SSW 6.9 mph - N/A   Clear
7:15 PM 68.0 °F 60.8 °F 78% 30.12 in - SSW 6.9 mph - N/A   Clear
7:45 PM 68.0 °F 62.6 °F 83% 30.12 in - South 5.8 mph - N/A   Clear
8:15 PM 66.2 °F 62.6 °F 88% 30.12 in - SSW 3.5 mph - N/A   Clear
8:45 PM 64.4 °F 60.8 °F 88% 30.12 in - South 2.3 mph - N/A   Clear
9:15 PM 64.4 °F 60.8 °F 88% 30.12 in - SSE 1.2 mph - N/A   Clear
9:45 PM 64.4 °F 60.8 °F 88% 30.12 in - East 2.3 mph - N/A   Clear
10:15 PM 64.4 °F 60.8 °F 88% 30.12 in - ESE 2.3 mph - N/A   Clear
10:45 PM 62.6 °F 60.8 °F 94% 30.12 in - ESE 2.3 mph - N/A   Clear
11:15 PM 62.6 °F 57.2 °F 82% 30.12 in - ESE 3.5 mph - N/A   Clear
11:45 PM 60.8 °F 57.2 °F 88% 30.12 in - SE 1.2 mph - N/A   Clear